Volver al catálogo

STARLINK-11135

ActivoComunicacionesVLEO
NORAD 60048·PAYLOAD·🇺🇸 United States

Lanzado Jun 8, 2024 desde Vandenberg Space Force Base

Loading…

Próximos Pases (próximas 24 horas)

TLE

ActualizadoSource: CelesTrak SupGP

Época: Sep 14, 2026, 21:41 UTC

1 60048C 24112L   26257.90395833  .00077557  00000+0  63883-3 0  2578
2 60048  53.1575  53.1768 0001088  80.0954 294.6263 15.69672034    15

Sigue STARLINK-11135 en tiempo real con AllMySat

Download on the App Store